Location: Angwan Shehu
(11.2514°N, 7.4613°E)
Time: 01:41:10
(UTC+00:00)

Tiros 1 - Pass Details

Date: 29 April 2021
Orbit: 630 x 664 km, 48.4° (Epoch: 06 May)

Event Time Altitude Azimuth Distance (km) Brightness Sun altitude
Rises 01:38:40 0° 186° (S) 2,981 - -48.6°
Reaches altitude 10° 01:41:52 10° 165° (SSE) 2,067 - -47.9°
Maximum altitude 01:44:43 16° 127° (SE) 1,707 - -47.4°
Drops below altitude 10° 01:47:35 10° 90° (E) 2,058 - -46.8°
Exits shadow 01:49:50 - 73° (ENE) 2,675 10.9 -46.3°
Sets 01:50:44 0° 69° (ENE) 2,963 11.2 -46.2°
